Regional Weather Roundup
Issued by NWS New Orleans/Baton Rouge, LA

Home | Current Version | Previous Version | Text Only | Print | Product List | Glossary Off
Versions: 1 2 3 4 5 6 7 8 9 10 11 12 13 14 15 16 17 18 19 20 21 22 23 24 25 26 27 28 29 30 31 32 33 34 35 36 37 38 39 40 41 42 43 44 45 46 47 48 49 50

384
ASUS44 KLIX 221810
RWRLIX
NEW ORLEANS REGIONAL WEATHER ROUNDUP
NATIONAL WEATHER SERVICE NEW ORLEANS LA
100 PM CDT WED OCT 22 2014

NOTE: "FAIR" INDICATES FEW OR NO CLOUDS BELOW 12,000 FEET WITH NO
      SIGNIFICANT WEATHER AND/OR OBSTRUCTIONS TO VISIBILITY.
      SKY/WX - SKY CONDITION AND SIGNIFICANT WEATHER.
      TMP - AIR TEMPERATURE.     DP    - DEWPOINT TEMPERATURE.
      RH  - RELATIVE HUMIDITY.   PRES  - PRESSURE.
      HI  - HEAT INDEX.          WCI   - WIND CHILL INDEX.

*  THESE STATIONS ARE NOT NWS OR FAA STATIONS AND ARE NOT UNDER
   NWS QUALITY CONTROL.

LAZ038-040-048-061>063-065>067-069-221900-
SOUTHEAST LOUISIANA

CITY           SKY/WX    TMP DP  RH WIND       PRES   REMARKS
N.O. AUDUBON     N/A     82  58  44 MISG        N/A
6HR MIN TEMP:  64; 6HR MAX TEMP:  82;

N.O. INTL ARPT   N/A     78  54  43 NE15      30.07F
6HR MIN TEMP:  67; 6HR MAX TEMP:  78;

N.O. LAKEFRONT   N/A     77  56  48 NE10      30.07F
6HR MIN TEMP:  68; 6HR MAX TEMP:  77;

N.O. DOWNTOWN*   N/A     77  54  44 N10       30.07F
6HR MIN TEMP:  64; 6HR MAX TEMP:  79;

SLIDELL          N/A     78  54  43 NE8       30.07F
6HR MIN TEMP:  52; 6HR MAX TEMP:  78;

BATON ROUGE      N/A     78  54  43 NE13      30.08F
6HR MIN TEMP:  58; 6HR MAX TEMP:  78;

BOOTHVILLE       N/A     77  62  59 NE10      30.05F
6HR MIN TEMP:  72; 6HR MAX TEMP:  77;

BELLE CHASSE     N/A     78  53  41 NE14      30.06F
6HR MIN TEMP:  61; 6HR MAX TEMP:  78;

BOGALUSA*        N/A     80  49  33 NE8       30.10F
6HR MIN TEMP:  52; 6HR MAX TEMP:  80;

NEW ROADS*       N/A     77  55  46 N5        30.09F
6HR MIN TEMP:  59; 6HR MAX TEMP:  77;

GONZALES*        N/A     78  56  47 NE8       30.07F
6HR MIN TEMP:  57; 6HR MAX TEMP:  78;

HAMMOND*         N/A     79  45  29 N6        30.09F
HOUMA*         SUNNY     79  55  44 NE12      30.06F
PORT FOURCHON* CLEAR     77  59  53 E15G23    30.07F

$$

MSZ070-080>082-221900-
SOUTHERN MISSISSIPPI

CITY           SKY/WX    TMP DP  RH WIND       PRES   REMARKS
MCCOMB           N/A     75  48  38 N6        30.10F
6HR MIN TEMP:  58; 6HR MAX TEMP:  75;

GULFPORT         N/A     78  50  37 NE9       30.06F
6HR MIN TEMP:  57; 6HR MAX TEMP:  78;

BILOXI           N/A     78  51  39 N8        30.06F
6HR MIN TEMP:  58; 6HR MAX TEMP:  78;

PASCAGOULA       N/A     77  50  38 N9        30.06F
6HR MIN TEMP:  50; 6HR MAX TEMP:  78;


$$

COASTAL OBSERVATIONS
LAKE AND NEARSHORE STATIONS

STATION/POSITION TIME  TEMP    WIND        PRES    WAVE
                       AIR SEA DIR/SP/G            HT/PER
                 (UTC) (F)     (DEG/KT/KT) (MB)    (FT/S)
PASCAGOULA       1800   76      10/  9/ 13 1017.4
WAVELAND YACHT   1800   74      50/  6/  8 1017.4
GRAND ISLE       1800   75 75   70/ 13/ 17 1018.1
SOUTHWEST PASS   1800   84 83   60/ 15/ 17 1017.4
NEW CANAL        1800   73 71   40/ 11/ 12 1018.6
SHELL BEACH      1800   73 69   40/ 14/ 16 1017.9

OFFSHORE STATIONS

STATION/POSITION TIME  TEMP    WIND        PRES    WAVE
                       AIR SEA DIR/SP/G            HT/PER
                 (UTC) (F)     (DEG/KT/KT) (MB)    (FT/S)
64 S DAUPHIN ISL 1719   75 80   50/ 14/ 16 1017.6    3/ 5

$$




USA.gov is the U.S. government's official web portal to all federal, state and local government web resources and services.